默认 日期 大小 文件数 浏览量 最新下载 xml
clicks磁力链接相关资源由用户搜索指令自动获取,结果来源于网络,本站不存储任何资料,亦不承担任何责任,请于24小时内删除,搜索到66个磁力,用时0ms。
    {"001.jpeg": 339140, "002.jpeg": 475992, "003.jpeg": 498733, "M11000C.nfo": 2753, "Moloko - 11000 Clicks.mp4": 1980394036}
创建时间: 2019-06-07 00:17:49 大小:1.85 GB 文件数量:5 热度:5 最近下载:2025-01-29 20:45:01
    {"Main Pdf.pdf": 90299, "archive info.txt": 285, "SECTION 3 (BQ).jpg": 122544, "Step-By-Step GUIDES": {"TIME PLAN.txt": 1137, "TO DO LIST.txt": 989, "RPM CALCULATOR.xlsx": 260880, "ADVANCED RPM CALC..xlsx": 190867, "ALL WORLD COUNTRIES.xlsx": 52646, "CPA ...
创建时间: 2020-10-27 07:11:09 大小:1.83 GB 文件数量:100 热度:5 最近下载:2022-11-12 12:46:09
    ... 800000000, "Billy Gene - Clicks Into Customers 2.0 - Procrackteam ... 800000000, "Billy Gene - Clicks Into Customers 2.0 - Procrackteam ... 800000000, "Billy Gene - Clicks Into Customers 2.0 - Procrackteam ... 800000000, "Billy Gene - Clicks Into Customers 2.0 - ...
创建时间: 2020-10-28 02:13:34 大小:10.14 GB 文件数量:14 热度:5 最近下载:2022-11-12 10:45:08
    ... want new.flac": 31046499, "clicks and errors - way back ... - 04 heartstrings.flac": 41109335, "clicks and errors - way back walking ... drive in.flac": 31058521, "clicks and errors - way back ... - 01 the micronaut -rotfeder- clicks and errors rmx.flac": 64145609}
创建时间: 2021-04-04 03:53:25 大小:215.97 MB 文件数量:6 热度:5 最近下载:2025-09-19 02:58:04
    {"free audiobook version.txt": 1015, "Everybody (Else) Is Perfect_ How I Survived Hypocrisy, Beauty, Clicks, and Likes by Gabrielle Korn.epub": 2417426}
创建时间: 2022-02-25 06:58:11 大小:2.31 MB 文件数量:2 热度:5 最近下载:2025-01-19 01:01:46
    {"~Get Your Files Here !": {"Bonus Resources.txt": 70, "2 - Exposure Triangle": {"3 -ISO.mp4": 46366288, "1 -Aperture.mp4": 123945702, "2 -Shutter Speed.mp4": 88566653}, "4 - Lighting Techniques": {"1 -Natural Light Photography.mp4": 154618882, "2 - ...
创建时间: 2025-06-06 12:10:11 大小:1.75 GB 文件数量:13 热度:5 最近下载:2025-09-18 19:53:14
    {"Lucifugum - On the Sortilage of Christianity.cue": 1913, "Lucifugum - On the Sortilage of Christianity.flac": 321068147}
创建时间: 2019-01-10 18:30:19 大小:306.2 MB 文件数量:2 热度:4 最近下载:2025-01-09 07:45:04
    ... Demo Kick.wav": 134784, "SOR Clicks + Glitches Vol.2 - Demo.mp3 ... 125.aiff": 1004158}, "SOR CLICKS and GLICTHES Vol.2 (EXS ... 3.exs": 2516}, "SOR CLICKS and GLITCHES Vol2 (Kontakt Instr ... ": 211107, "Product Information - SOR Clicks & Glitches Vol.2.pdf": 734196}
创建时间: 2019-01-15 00:27:22 大小:365.26 MB 文件数量:385 热度:4 最近下载:2025-02-28 03:28:02
    {"RARBG.COM.mp4": 1016764, "RARBG.COM.txt": 34, "Clicks.2006.1080p.BluRay.H264.AAC-RARBG.mp4": 2203008345, "Clicks.2006.1080p.BluRay.H264.AAC-RARBG.nfo": 4065}
创建时间: 2019-01-19 21:49:23 大小:2.05 GB 文件数量:4 热度:4 最近下载:2022-11-12 12:51:07
    ... 3160-1171237161.jpg": 77895}}, "2004 - Clicks & Cuts 4 [CD] [MPM004]": ... Movement).mp3": 14739587}, "2001 - Clicks & Cuts 2 [3xCD] [MP ... "Cover.jpg": 130571}, "2002 - Clicks & Cuts 3 [2xCD] [MP 116 ... "Cover.jpg": 206531}, "2010 - Clicks & Cuts 5.0 - Paradigm Shift ...
创建时间: 2020-03-24 16:08:19 大小:1.36 GB 文件数量:156 热度:4 最近下载:2023-12-29 02:06:04
    {"1. Getting Started": {"2. Introduction What's The Hack .mp4": 21773842, "2. Introduction What's The Hack .srt": 15237, "4. Linking Your Associated Website.mp4": 9475012, "4. Linking Your Associated Website.srt": 4556, "1. Welcome to The QualiWave ...
创建时间: 2020-07-10 15:12:36 大小:810.46 MB 文件数量:61 热度:4 最近下载:2024-08-27 21:44:02
    ... Use FB Ads To Turn Clicks Into Customers": {"Section 1 - Welcome ... 5 - Creating Ads That Get Clicks": {"BG_FB_Ad_Template.jpg": 8635506, "Resource - Facebook ... Guidelines.txt": 38, "clicks into customers week 1 video ...
创建时间: 2020-10-27 11:24:00 大小:2.92 GB 文件数量:92 热度:4 最近下载:2022-11-12 10:19:44
    ... ": 285, "ProcrackTeam.com.url": 50, "Clicks & Commissions Summit 2020.mp4": 3163698722}
创建时间: 2020-11-13 23:17:09 大小:2.95 GB 文件数量:24 热度:4 最近下载:2022-04-13 06:15:57
    {"Read Me.txt": 163, "David Bowie - Diamond Dogs 30th Anniversary Edition - 09 - 1984.mp3": 6127224, "David Bowie - Diamond Dogs 30th Anniversary Edition - 14 - Dodo.mp3": 5066736, "David Bowie - Diamond Dogs 30th Anniversary Edition - 12 - 1984Dodo.mp3": ...
创建时间: 2021-01-03 17:43:51 大小:116.5 MB 文件数量:20 热度:4 最近下载:2025-09-16 15:11:10
    {"__ia_thumb.jpg": 11477, "Dexter'sLabSafetyClicks.mp4": 51369630, "Dexter'sLabSafetyClicks.mpg": 524550144, "dexters-lab-safety-clicks_meta.xml": 3473, "dexters-lab-safety-clicks_meta.sqlite": 20480}
创建时间: 2021-01-13 10:51:14 大小:549.27 MB 文件数量:5 热度:4 最近下载:2025-03-15 08:54:03
    {"poster.jpg": 50978, "screens.jpg": 591428, "RARBG.com.txt": 33, "pml.15.02.15.harlow.nyx.nyx.clicks.with.hard.dix.mp4": 1226449231}
创建时间: 2021-02-11 19:48:02 大小:1.14 GB 文件数量:4 热度:4 最近下载:2025-02-10 04:54:01
    {"cover.jpg": 426741, "12. Bonus Money.mp3": 8056844, "02. Tatooine Dreams.mp3": 4605552, "09. Simple Simonism.mp3": 5210548, "13. Inner Ramblings.mp3": 4640036, "16. Ease ‘Em Out Matt.mp3": 5073672, "04. Beanio feat. Bigg Jus.mp3": 8366152, "15. A Most ...
创建时间: 2021-08-12 21:28:27 大小:91.97 MB 文件数量:17 热度:4 最近下载:2025-01-21 00:05:10
    {"de.jpg": 24715, "11-death_is_not_glamorous-for_keeps.mp3": 3392772, "04-death_is_not_glamorous-aware-wolf.mp3": 2442063, "12-death_is_not_glamorous-magic_fang.mp3": 2589544, "03-death_is_not_glamorous-no_mistakes.mp3": 1427826, "05-death_is_not_glamorous ...
创建时间: 2019-05-19 08:29:18 大小:39.55 MB 文件数量:17 热度:3 最近下载:2021-06-17 16:25:58
    {"000.jpg": 87269, "HarlowNyx_Nyx Clicks With Hard Dix.mp4": 590677252, "HarlowNyx_Nyx Clicks With Hard Dix.mp4.jpg": 400268}
创建时间: 2020-01-02 06:44:39 大小:563.78 MB 文件数量:3 热度:3 最近下载:2024-01-01 06:05:04
    ... Business Courses.url": 114}, "Affiliate Clicks Academy.png": 302478, "II. Affiliate ... Clicks Academy Videos": {"Pimpmymoney.net.url": ...
创建时间: 2020-07-12 13:21:01 大小:242.85 MB 文件数量:36 热度:3 最近下载:2024-09-23 05:02:01